Temp
61 61 61 61 61 61 61 61 61 61 62 62 62 62 62 63 62 74 77 87 86 74 75 94 92 93 96 92 96 97 80 76 81 84 89 98 93 98 102 97 98 100 86 76 76
61 61 61 61 61 60 60 60 60 61 61 62 62 62 62 62 71 77 87 76 76 75 90 89 87 91 88 89 91 87 79 80 91 93 90 95 94 95 95 94 94 97 92 88 88
61 61 61 61 60 60 60 60 60 60 61 61 61 61 62 64 74 87 76 76 76 80 93 96 95 92 85 90 90 88 79 88 91 94 94 92 92 97 92 88 94 96 93 95 97
60 61 61 60 60 59 59 59 60 60 61 61 61 61 61 72 72 88 76 75 75 91 91 92 92 86 83 82 91 83 89 90 92 94 92 88 93 91 93 93 100 102 102 97 93
59 60 60 60 59 59 59 59 59 60 60 60 61 61 67 76 82 86 76 78 89 89 89 89 88 87 82 86 89 86 88 91 93 93 92 93 89 89 91 97 100 101 101 99 99
59 59 59 59 59 59 59 59 59 59 59 60 60 60 71 72 99 94 94 90 92 90 90 93 90 92 87 86 86 90 90 90 92 91 91 87 88 89 91 97 97 98 98 99 100
59 59 59 59 59 59 59 58 58 58 60 61 61 70 77 80 99 100 97 94 96 93 90 95 96 91 90 84 90 88 82 86 88 89 88 90 82 84 93 96 94 95 97 98 101
58 58 58 58 59 59 59 59 58 61 61 61 62 75 75 98 100 97 98 95 98 99 96 98 98 91 87 89 86 82 82 74 85 88 89 87 74 88 94 93 92 93 95 97 99
58 58 58 58 58 59 58 58 61 63 61 62 70 75 79 84 90 96 98 92 94 95 96 96 92 84 84 77 74 78 70 74 79 90 88 84 77 88 94 92 90 92 93 96 97
58 57 57 58 58 58 57 58 63 61 66 77 82 76 84 85 92 94 97 95 89 88 86 84 82 76 77 74 63 70 73 76 76 85 86 81 80 86 92 92 89 90 93 95 93
58 57 57 57 58 57 63 76 77 73 78 80 83 83 87 93 95 91 94 90 89 83 74 81 73 68 74 77 78 77 75 75 81 88 82 79 79 84 89 90 89 90 90 92 88
57 57 57 57 57 57 66 83 81 84 72 87 87 88 90 91 82 89 94 81 80 72 78 74 69 77 82 81 78 77 73 73 80 84 83 79 77 83 87 88 89 90 90 92 89
57 57 57 57 56 67 87 86 93 91 74 82 87 86 86 89 82 84 89 84 77 73 75 71 76 83 79 76 75 75 72 72 73 79 83 79 73 77 85 89 90 91 89 90 88
56 57 57 55 66 88 87 93 95 91 66 75 80 85 89 89 79 90 92 85 79 72 76 75 81 78 77 74 76 68 79 77 74 71 65 78 60 73 80 82 85 86 86 86 87
56 57 56 55 72 84 89 95 93 84 54 77 81 93 90 82 82 84 91 84 73 74 76 71 75 75 73 75 79 72 80 76 75 71 68 70 66 72 81 77 79 83 85 86 87
56 56 55 77 75 88 95 93 86 64 55 72 80 77 79 83 81 84 84 87 84 76 77 75 83 80 78 81 81 81 76 75 73 70 57 66 66 68 74 79 79 82 83 84 84
56 55 57 77 82 94 93 84 64 58 75 69 70 75 74 74 76 78 75 73 70 64 65 73 74 80 83 74 78 76 68 55 53 55 54 69 65 69 76 83 82 79 79 82 84
54 53 70 83 92 92 85 72 56 70 70 76 73 73 69 73 72 74 71 68 76 73 65 60 58 68 70 74 70 70 66 56 45 49 56 68 54 61 75 80 80 79 79 82 83
53 82 83 88 93 89 75 62 64 67 71 69 71 67 68 71 70 70 69 68 72 70 58 56 59 70 72 70 73 67 61 70 56 56 52 59 62 68 73 73 74 75 76 77 78
62 75 84 92 92 82 70 61 69 73 72 71 61 67 61 66 65 65 65 71 69 71 71 63 52 67 70 72 70 66 69 57 55 39 41 52 50 45 50 56 57 53 68 74 77
65 75 86 92 89 76 65 68 70 75 71 65 64 62 63 62 64 62 63 69 68 66 69 65 58 59 66 63 62 64 61 63 63 49 42 45 51 57 54 51 51 54 55 65 74
71 70 88 90 71 75 70 68 55 71 73 68 68 65 62 63 60 60 60 65 68 67 59 64 57 50 57 63 62 65 61 57 50 51 52 49 50 59 62 58 54 54 57 66 72
66 74 88 84 65 69 70 69 69 67 67 66 64 67 66 61 55 61 62 69 68 64 58 59 54 45 51 60 63 54 58 59 60 57 47 41 41 63 62 63 65 61 60 66 70
67 68 77 80 76 66 64 65 63 70 66 67 65 66 62 59 64 59 61 67 68 66 60 60 53 49 42 47 48 44 48 60 58 48 53 54 56 51 56 61 63 65 68 69 70
71 68 68 63 67 65 66 65 62 62 67 67 62 63 60 54 57 58 63 65 67 62 63 59 48 53 55 58 56 54 56 58 55 57 51 56 56 59 61 62 65 67 67 68 69
65 64 68 65 68 64 58 62 61 63 62 61 60 63 62 56 57 54 59 59 57 63 59 60 48 53 50 57 59 56 60 59 59 59 59 59 58 65 68 68 66 67 68 68 68
72 72 66 60 65 63 64 63 61 63 64 65 62 60 58 60 62 63 63 62 60 57 55 54 48 46 42 54 52 47 56 58 59 61 60 54 61 66 65 65 65 66 67 67 68
MSLP
1019.35 1018.90 1018.50 1018.03 1017.52 1017.09 1016.68 1016.30 1015.92 1015.58 1015.27 1014.98 1014.67 1014.38 1014.08 1013.71 1013.18 1012.25 1010.04 1008.18 1007.84 1008.23 1008.40 1007.69 1007.61 1007.04 1006.41 1005.60 1004.78 1004.10 1003.60 1002.24 1000.86 999.61 998.53 998.21 998.51 999.14 999.46 999.63 1000.30 1001.28 1003.44 1006.39 1006.42
1019.43 1018.95 1018.41 1017.83 1017.35 1016.93 1016.52 1016.13 1015.77 1015.41 1015.10 1014.83 1014.55 1014.33 1014.11 1013.82 1012.54 1010.03 1007.69 1007.69 1007.88 1008.18 1008.02 1007.24 1006.71 1006.44 1005.80 1005.08 1004.55 1003.90 1003.19 1001.99 1000.67 999.55 999.18 998.69 998.94 999.47 999.58 1000.03 1000.46 1001.19 1002.91 1004.83 1005.74
1019.39 1018.83 1018.27 1017.70 1017.17 1016.70 1016.28 1015.89 1015.53 1015.21 1014.86 1014.61 1014.45 1014.28 1014.12 1013.85 1011.51 1007.11 1007.01 1007.21 1007.61 1007.96 1007.59 1006.50 1006.01 1005.68 1005.22 1004.59 1003.86 1003.37 1002.88 1001.86 1000.69 1000.31 1000.15 1000.02 999.77 999.89 1000.14 1000.24 1000.24 1000.18 1001.67 1002.98 1003.48
1019.35 1018.71 1018.10 1017.55 1017.01 1016.52 1016.05 1015.61 1015.21 1014.88 1014.55 1014.35 1014.21 1014.14 1014.03 1013.21 1009.25 1007.25 1007.55 1007.69 1007.97 1007.64 1007.53 1006.24 1005.54 1004.97 1004.63 1003.96 1003.34 1002.81 1002.40 1001.92 1001.11 1000.50 1000.68 1001.04 1000.79 1000.42 1000.43 1000.32 1000.19 1000.09 1000.72 1001.86 1002.71
1019.20 1018.52 1017.89 1017.25 1016.70 1016.18 1015.70 1015.23 1014.80 1014.46 1014.17 1014.03 1013.99 1014.00 1013.66 1011.09 1007.40 1007.35 1007.67 1007.64 1007.70 1007.66 1006.86 1005.76 1005.01 1004.53 1004.00 1003.59 1002.86 1002.16 1001.96 1001.71 1001.25 1000.92 1000.98 1001.22 1001.22 1001.04 1000.69 1000.53 1000.66 1000.27 1000.32 1000.94 1001.39
1019.00 1018.24 1017.58 1016.97 1016.35 1015.70 1015.13 1014.64 1014.25 1013.98 1013.81 1013.74 1013.81 1014.01 1012.68 1009.03 1005.68 1006.55 1006.86 1007.25 1006.92 1007.05 1006.33 1005.35 1004.72 1004.46 1003.91 1003.31 1002.76 1002.06 1001.59 1001.32 1001.14 1000.97 1001.06 1001.14 1001.17 1001.27 1000.96 1000.81 1000.55 1000.46 1000.28 1000.52 1000.58
1018.83 1018.00 1017.28 1016.65 1015.98 1015.29 1014.57 1014.07 1013.82 1013.55 1013.25 1013.35 1013.61 1013.24 1010.71 1007.29 1005.72 1005.70 1006.08 1006.36 1006.32 1006.33 1005.61 1005.18 1004.77 1004.37 1004.10 1003.61 1003.24 1002.70 1001.88 1001.36 1001.05 1001.06 1000.87 1001.14 1000.80 1000.66 1000.71 1000.39 1000.20 1000.32 1000.50 1000.60 1000.20
1018.76 1017.86 1017.00 1016.33 1015.69 1014.99 1014.36 1013.97 1013.61 1013.15 1012.95 1013.13 1013.43 1012.38 1008.78 1005.79 1005.94 1005.74 1005.69 1005.82 1005.82 1005.68 1005.56 1005.04 1004.84 1004.65 1004.40 1004.19 1003.34 1002.58 1002.01 1001.17 1000.60 1000.34 1000.54 1001.11 1000.28 1000.09 999.85 1000.07 1000.05 1000.25 1000.53 1000.40 1000.44
1018.58 1017.67 1016.81 1015.98 1015.40 1014.89 1014.39 1013.96 1013.46 1013.18 1013.11 1013.15 1012.83 1011.17 1007.10 1006.46 1005.89 1005.52 1005.53 1005.37 1005.54 1005.65 1005.61 1005.60 1005.69 1005.17 1005.02 1004.52 1003.62 1002.57 1001.46 1000.67 999.99 999.46 999.48 1000.23 1000.26 999.97 999.44 999.35 999.88 1000.18 1000.41 1000.31 1000.58
1018.51 1017.67 1016.76 1015.77 1015.10 1014.74 1014.18 1013.80 1013.19 1013.32 1013.04 1012.25 1010.84 1009.61 1006.75 1005.27 1005.34 1005.48 1005.49 1005.42 1005.44 1005.78 1005.78 1006.01 1005.92 1005.32 1004.75 1004.06 1002.62 1001.80 1000.73 1000.13 999.46 998.66 999.06 999.75 999.87 999.98 999.14 999.13 999.96 1000.45 1000.37 1000.30 1000.94
1018.45 1017.64 1016.79 1015.80 1014.81 1014.42 1013.50 1012.84 1012.54 1012.06 1010.75 1008.63 1007.51 1006.57 1005.55 1005.24 1005.37 1005.25 1005.46 1005.64 1005.40 1005.75 1005.55 1005.35 1005.07 1004.26 1003.70 1003.21 1002.73 1001.80 1000.81 999.91 998.92 998.54 999.21 999.80 999.89 999.58 999.46 999.28 999.86 1000.30 1000.58 1000.70 1001.79
1018.37 1017.41 1016.54 1015.52 1014.71 1013.64 1013.61 1011.15 1010.66 1010.32 1009.05 1007.05 1006.52 1005.82 1005.66 1005.64 1005.03 1004.72 1005.46 1005.75 1005.47 1005.34 1005.10 1005.05 1003.93 1003.74 1003.16 1002.66 1002.14 1001.67 1001.07 1000.33 999.85 999.28 999.26 999.55 1000.02 999.94 999.33 999.17 999.57 1000.00 1000.42 1000.76 1001.91
1018.40 1017.39 1016.43 1015.27 1014.27 1013.04 1010.92 1010.22 1009.48 1009.35 1008.44 1006.16 1005.56 1005.21 1005.13 1005.24 1004.53 1004.19 1004.86 1005.24 1005.17 1005.03 1004.67 1003.91 1003.26 1002.64 1002.40 1002.35 1001.81 1001.34 1001.04 1000.79 1000.58 1000.31 999.69 999.81 1000.00 1000.01 999.57 999.28 999.40 999.98 1000.74 1001.23 1002.11
1018.32 1017.35 1016.48 1015.28 1013.80 1011.26 1009.73 1009.61 1009.23 1009.45 1007.98 1005.52 1004.96 1004.61 1004.49 1004.38 1004.39 1004.68 1004.76 1005.03 1004.85 1004.65 1004.16 1003.40 1003.07 1002.44 1001.84 1001.80 1001.75 1001.12 1001.32 1001.44 1001.24 1000.94 1000.09 1000.05 999.70 999.17 999.21 998.99 999.37 1000.19 1001.42 1002.26 1003.12
1018.20 1017.31 1016.21 1016.49 1014.23 1010.80 1010.06 1009.39 1009.66 1009.62 1006.76 1005.21 1004.52 1004.73 1004.32 1004.42 1004.57 1004.04 1004.97 1005.08 1004.68 1004.22 1003.92 1003.23 1002.59 1002.14 1001.60 1001.12 1001.48 1001.36 1001.48 1001.47 1001.44 1001.24 1001.33 1000.38 999.76 998.85 998.05 998.52 999.44 1000.65 1001.68 1002.53 1003.57
1017.85 1017.03 1016.52 1013.12 1013.38 1010.85 1009.75 1009.52 1009.54 1008.75 1005.66 1005.10 1004.93 1004.84 1004.41 1003.84 1004.21 1004.45 1004.30 1004.68 1004.74 1004.23 1003.75 1003.13 1002.64 1001.91 1001.22 1000.92 1001.01 1001.30 1001.77 1001.82 1002.08 1001.88 1001.48 1001.24 1000.69 999.20 998.32 997.32 999.23 1000.94 1002.29 1003.37 1004.38
1017.48 1016.19 1016.31 1014.06 1011.27 1010.22 1010.01 1009.46 1008.62 1006.81 1005.72 1005.40 1005.45 1005.59 1005.32 1004.74 1004.36 1004.54 1004.60 1004.41 1004.20 1003.84 1003.37 1002.65 1002.16 1001.95 1001.49 1001.36 1001.67 1001.42 1002.15 1002.60 1002.86 1002.45 1001.56 1001.61 1001.00 999.98 999.38 998.55 999.18 1001.28 1003.17 1004.17 1005.01
1017.03 1015.29 1013.45 1012.59 1011.03 1010.47 1010.27 1009.32 1007.80 1005.72 1005.71 1006.21 1006.36 1006.16 1005.59 1005.21 1005.50 1005.00 1005.20 1004.91 1004.37 1003.97 1004.12 1004.00 1002.95 1002.75 1002.66 1001.76 1001.91 1002.10 1002.77 1003.24 1003.32 1003.26 1002.55 1002.15 1002.57 1002.61 1001.56 1001.50 1001.92 1003.61 1004.66 1005.06 1005.70
1016.41 1013.00 1011.82 1011.03 1010.72 1010.53 1010.14 1008.25 1006.93 1007.15 1007.53 1007.50 1007.14 1005.97 1005.54 1005.75 1006.27 1006.13 1005.87 1005.47 1005.23 1005.91 1006.61 1006.34 1004.64 1005.20 1004.84 1005.47 1004.07 1003.52 1003.41 1004.23 1004.82 1006.16 1005.40 1004.37 1004.75 1004.87 1005.04 1005.28 1005.44 1005.54 1006.07 1006.40 1006.86
1016.81 1013.24 1010.54 1010.31 1010.30 1010.37 1009.53 1007.88 1007.60 1008.42 1008.72 1008.50 1008.02 1007.30 1007.09 1006.91 1007.14 1007.11 1006.92 1006.60 1006.72 1007.41 1007.96 1007.84 1006.98 1006.17 1005.81 1005.63 1006.06 1005.39 1005.31 1004.83 1005.54 1007.29 1006.59 1005.73 1006.60 1007.82 1008.54 1009.86 1010.09 1009.66 1007.91 1008.08 1008.12
1016.39 1012.16 1010.21 1010.17 1009.98 1009.74 1008.54 1008.11 1008.71 1009.04 1009.97 1009.70 1009.14 1008.94 1008.78 1008.57 1008.49 1008.38 1008.29 1008.17 1008.73 1009.14 1009.36 1009.13 1008.87 1007.21 1006.69 1006.29 1006.20 1005.51 1005.75 1005.70 1005.85 1007.37 1007.98 1007.08 1007.54 1009.02 1009.65 1010.53 1011.50 1012.23 1011.89 1010.42 1009.30
1015.21 1011.57 1010.15 1010.07 1009.74 1008.52 1008.42 1009.65 1011.03 1009.89 1010.07 1010.28 1010.22 1010.05 1009.86 1009.84 1009.69 1009.45 1009.17 1009.10 1010.25 1010.65 1010.38 1010.25 1009.92 1008.81 1007.69 1007.44 1008.43 1007.43 1006.69 1007.08 1007.10 1006.78 1007.84 1008.78 1008.90 1010.12 1010.47 1011.47 1011.98 1013.15 1012.78 1011.54 1011.23
1016.01 1012.11 1010.07 1010.11 1009.42 1008.68 1009.61 1010.11 1010.66 1010.60 1010.64 1010.78 1010.71 1010.68 1010.84 1010.88 1010.80 1009.96 1009.87 1010.00 1010.80 1011.28 1011.70 1012.11 1010.75 1010.09 1008.74 1007.67 1008.35 1008.71 1008.42 1008.25 1007.93 1008.02 1008.49 1009.29 1010.59 1010.94 1011.24 1011.04 1011.29 1011.18 1011.75 1011.68 1011.38
1016.57 1012.07 1010.33 1010.10 1010.65 1011.05 1010.66 1010.42 1010.59 1011.05 1011.60 1011.54 1011.61 1011.54 1011.57 1011.31 1010.99 1010.51 1010.17 1010.01 1010.88 1011.62 1012.29 1012.84 1012.38 1011.77 1010.89 1010.52 1011.53 1011.36 1009.96 1008.29 1007.97 1008.35 1007.50 1007.59 1008.64 1011.18 1011.65 1010.88 1010.97 1011.21 1011.20 1011.25 1011.25
1016.32 1013.59 1013.48 1011.74 1011.24 1012.13 1011.88 1011.72 1011.24 1010.97 1011.63 1011.96 1011.90 1011.81 1011.79 1011.80 1011.51 1010.88 1010.43 1010.28 1010.84 1011.65 1012.17 1012.69 1012.65 1012.20 1011.38 1010.48 1010.30 1010.28 1009.29 1008.76 1008.32 1007.76 1007.50 1007.55 1007.87 1009.05 1009.88 1010.20 1010.42 1010.97 1011.32 1011.22 1011.29
1017.07 1015.83 1014.75 1013.67 1012.74 1012.76 1012.39 1011.96 1011.79 1011.85 1012.23 1012.16 1012.07 1012.27 1012.37 1012.41 1012.38 1012.00 1011.73 1011.71 1011.68 1011.82 1012.31 1012.64 1012.88 1012.47 1011.69 1010.69 1009.80 1008.91 1008.40 1008.30 1008.14 1007.75 1007.57 1007.60 1007.65 1008.25 1009.06 1009.82 1010.08 1010.47 1010.74 1010.95 1011.33
1017.68 1017.10 1016.14 1014.43 1013.16 1012.70 1012.12 1012.26 1012.71 1013.06 1013.13 1012.95 1013.17 1013.31 1013.16 1013.13 1013.44 1013.32 1013.20 1013.14 1013.02 1012.81 1012.74 1013.09 1013.48 1013.25 1012.19 1011.17 1010.64 1009.15 1008.16 1007.81 1007.49 1007.61 1007.66 1007.55 1007.90 1008.53 1009.03 1009.71 1010.25 1010.66 1011.08 1011.45 1011.74
Wind_Speed
20 20 18 18 18 17 17 16 16 15 14 14 14 13 14 14 15 9 13 8 4 12 4 10 11 14 15 15 16 17 11 14 19 18 16 8 6 1 13 6 1 5 15 20 31
20 20 20 20 19 18 18 18 17 16 15 14 13 13 13 13 14 21 17 10 10 9 10 13 13 14 13 14 15 14 12 18 20 17 13 15 4 4 4 9 12 10 22 27 25
21 21 21 21 22 20 19 18 17 16 15 14 13 12 11 12 11 2 7 12 11 10 15 15 13 13 16 15 15 16 15 19 21 11 13 14 16 4 8 10 14 10 21 17 14
22 23 22 23 22 21 20 19 18 17 15 14 13 11 9 8 5 5 5 8 6 10 15 19 15 16 16 17 19 17 19 18 18 20 4 12 15 15 12 10 15 12 12 19 15
22 24 23 22 21 21 20 19 18 17 16 13 11 8 7 9 13 8 8 8 7 10 16 17 16 14 16 17 17 18 17 19 20 11 15 11 14 16 15 9 12 16 6 1 7
23 23 23 22 21 22 20 18 15 15 14 12 9 4 6 13 1 13 8 9 10 13 15 16 12 13 16 17 18 19 16 18 16 19 12 16 16 15 16 14 15 9 14 6 16
23 24 24 23 21 20 18 17 14 14 13 8 8 7 11 18 4 4 7 10 14 15 14 12 14 16 12 15 17 19 21 19 15 17 16 14 18 18 17 15 15 13 12 12 12
23 24 25 23 21 20 18 16 14 11 2 6 8 9 9 10 6 6 9 11 13 13 14 13 11 15 14 17 19 18 17 17 19 20 17 13 18 17 18 16 13 8 11 14 10
25 25 26 25 22 19 16 14 13 5 2 8 7 9 9 3 7 7 11 12 12 8 11 7 9 13 14 16 17 17 15 19 20 20 18 19 18 17 19 16 13 9 13 13 10
25 25 27 27 24 18 16 8 8 4 7 9 11 9 8 4 5 7 9 9 8 10 10 11 9 14 14 15 15 17 19 18 17 17 11 11 16 16 18 10 7 9 12 12 12
26 26 26 26 26 20 13 5 5 7 14 13 4 9 7 4 7 6 6 9 10 8 14 15 13 16 18 20 21 21 24 22 17 12 13 13 14 14 15 10 12 12 11 9 15
27 28 28 28 25 25 8 10 8 7 10 11 4 11 1 3 7 11 9 8 11 14 15 14 17 18 18 20 20 22 22 22 16 19 10 8 13 15 16 12 14 12 13 12 15
26 28 28 30 27 11 7 10 7 6 7 10 0 5 2 6 4 4 12 11 13 16 17 19 18 20 22 19 21 21 16 16 17 19 18 16 14 18 20 16 12 10 10 11 10
26 27 27 30 7 10 7 11 9 6 7 10 8 5 7 4 6 1 5 10 15 20 20 19 20 22 22 15 16 21 15 19 18 18 15 13 14 18 21 16 14 11 9 8 9
27 27 27 9 12 7 10 10 9 4 6 3 6 5 6 6 6 7 3 9 16 18 18 20 21 21 24 22 18 19 17 17 20 16 18 22 14 16 16 19 18 12 9 10 11
28 27 24 4 8 13 13 11 5 8 2 8 2 4 10 6 2 4 12 11 12 17 19 22 24 24 24 23 20 14 19 17 17 15 15 20 19 17 14 15 20 17 13 10 14
30 32 17 9 7 12 10 8 7 8 4 5 4 7 11 13 5 12 8 12 12 15 16 18 22 24 24 16 16 11 9 10 14 15 15 17 18 15 3 5 23 21 15 11 12
33 32 8 9 10 10 7 8 10 4 5 7 6 12 13 6 9 9 8 14 14 13 11 15 19 16 15 17 17 14 13 12 18 14 14 8 9 4 17 18 21 18 12 12 12
32 6 7 10 8 6 8 8 7 9 8 10 13 13 11 4 6 7 17 11 12 10 7 12 16 17 4 4 17 14 17 14 9 15 15 15 7 11 10 12 10 13 12 10 11
10 9 9 5 6 5 8 14 3 7 9 8 11 5 9 12 13 11 10 12 8 9 10 11 18 21 15 12 16 17 16 10 7 5 13 16 11 7 8 17 14 22 6 9 5
5 6 7 8 6 7 9 6 4 8 6 7 11 13 13 13 12 10 12 11 12 10 13 14 14 21 9 9 11 13 16 16 13 8 5 12 4 3 14 11 11 14 14 16 6
6 6 7 5 7 4 4 6 3 5 1 4 5 8 8 10 11 12 13 6 9 11 12 12 9 14 22 12 14 17 13 4 6 11 7 7 4 6 10 12 15 10 1 9 9
7 8 5 5 6 6 5 5 1 5 4 5 8 5 7 9 8 9 7 6 7 9 9 10 5 8 13 15 2 8 11 17 14 7 13 4 1 4 5 12 10 13 15 15 3
7 5 2 1 3 7 9 9 4 8 5 4 9 9 8 10 11 10 12 4 7 5 7 2 8 13 12 5 3 10 17 17 10 12 14 12 9 11 11 10 4 3 3 3 5
6 5 4 7 8 9 9 11 9 8 6 4 6 7 7 9 12 14 14 10 6 7 3 4 13 14 18 20 11 19 13 13 14 13 12 13 6 3 5 8 7 5 3 7 4
6 6 10 11 10 9 5 9 4 9 2 9 7 8 11 8 12 14 16 12 12 11 4 7 11 14 17 18 16 18 16 9 15 14 16 12 12 14 7 11 11 6 6 4 4
8 10 6 8 12 7 3 6 7 7 8 6 8 10 10 10 12 13 12 12 14 14 12 10 8 10 13 16 13 12 10 11 12 12 13 12 8 7 4 4 2 5 8 8 7
Wind_Direction
349 345 342 338 334 330 328 325 322 319 317 317 316 316 316 315 301 248 258 236 232 160 176 246 219 236 247 260 253 250 261 262 260 259 269 259 165 305 272 282 63 271 124 157 169
344 340 336 333 331 328 326 323 320 317 315 315 317 317 318 324 291 269 255 144 133 159 222 224 216 227 239 244 240 235 250 250 270 296 334 325 43 299 249 225 250 238 125 158 202
340 336 333 333 329 326 323 319 316 313 311 311 313 313 315 308 275 279 49 139 154 179 241 233 233 226 239 241 237 231 243 272 286 349 329 307 313 215 261 277 275 258 136 155 168
338 336 335 335 330 325 321 316 312 308 304 302 301 302 306 269 297 64 128 132 164 216 231 250 229 230 238 244 241 251 243 261 280 293 266 274 283 287 282 279 292 304 132 148 156
336 334 334 330 327 324 319 313 306 301 296 289 286 292 273 235 260 133 147 141 188 202 219 236 233 245 244 249 258 250 250 256 258 266 283 264 268 272 269 275 264 283 288 191 232
336 333 333 331 328 326 318 307 297 296 291 276 264 270 244 262 32 136 195 169 209 208 227 244 237 247 261 267 267 286 274 257 264 268 249 262 260 264 263 260 264 252 269 237 248
335 334 334 333 331 325 316 308 308 304 289 252 227 229 262 251 338 310 201 214 215 209 236 244 264 265 276 270 278 267 273 273 249 258 242 257 258 253 258 252 234 222 237 255 254
335 335 335 334 333 329 323 319 313 313 314 186 194 226 263 38 320 280 241 219 229 213 253 267 256 270 280 281 284 273 272 256 256 239 234 235 260 257 228 241 233 209 242 233 234
338 337 335 333 333 330 324 317 309 335 159 161 196 232 265 154 229 237 241 229 215 232 253 295 301 274 254 256 260 259 255 252 248 253 201 207 248 257 266 201 211 215 237 232 187
338 337 335 331 329 329 317 275 303 284 221 205 259 236 248 1 50 310 221 240 211 233 227 230 243 242 238 250 242 251 243 234 254 261 190 224 238 258 280 165 186 230 252 236 110
336 335 333 329 325 327 319 231 239 194 232 276 288 282 285 282 157 230 192 214 213 221 233 229 239 239 236 236 252 269 279 288 294 238 182 216 258 240 251 191 206 210 235 234 109
336 333 333 328 325 316 282 5 8 308 302 280 253 265 95 318 285 210 158 224 216 235 219 245 238 251 257 257 253 254 257 272 281 288 284 228 244 264 266 233 214 219 226 211 120
334 331 331 326 320 291 273 6 334 306 269 205 218 293 338 267 312 282 174 212 250 234 253 252 253 245 234 250 267 253 273 270 267 271 264 248 261 258 252 241 230 192 39 95 93
331 329 330 327 301 330 344 345 342 24 269 147 189 130 204 244 229 131 282 254 254 254 264 253 262 262 270 248 260 268 240 260 263 275 263 205 250 241 235 210 203 146 142 128 116
328 328 327 327 312 314 352 330 354 253 245 89 99 4 280 263 0 205 194 275 265 270 248 259 266 257 263 259 253 259 275 264 264 242 268 272 257 270 235 208 168 173 175 134 119
326 323 331 254 210 264 330 329 267 236 180 137 329 357 303 217 242 292 284 206 271 282 260 271 278 272 269 265 252 256 262 255 262 273 240 248 261 267 242 211 160 158 138 142 118
325 317 314 301 299 332 331 286 244 256 159 91 357 312 307 283 289 288 310 301 275 268 252 261 248 255 255 260 256 239 242 252 247 237 249 245 246 252 29 239 168 140 140 130 132
323 310 256 237 273 331 301 259 261 80 34 34 310 303 284 333 315 343 288 292 283 304 283 300 295 339 3 274 230 226 230 237 254 261 262 284 331 350 50 81 109 117 139 141 142
316 301 240 210 290 300 273 251 355 17 18 339 311 265 283 178 199 303 300 285 338 47 324 314 295 348 235 227 309 274 258 240 272 291 280 271 138 94 67 68 85 114 135 129 104
318 292 262 358 324 261 253 261 31 39 356 325 303 315 317 332 324 320 319 356 342 39 352 314 304 307 287 202 242 284 308 276 144 243 266 273 163 215 329 352 17 8 93 103 123
266 265 83 319 301 253 256 39 357 74 355 335 335 321 316 316 316 312 313 326 32 347 330 311 287 281 288 255 271 238 220 240 262 147 254 279 305 33 167 164 60 30 8 341 25
298 280 59 341 273 226 356 17 11 298 327 293 309 293 303 326 315 304 296 5 42 347 309 340 300 291 290 230 205 300 315 172 294 265 13 311 312 347 102 125 127 157 275 353 351
296 289 94 302 299 348 81 292 280 311 322 323 307 302 322 305 305 311 327 331 26 336 26 354 316 305 297 264 55 330 286 270 291 242 221 226 170 30 180 176 170 164 174 196 169
281 305 100 292 142 344 355 293 289 152 293 291 293 310 285 279 269 259 261 281 149 250 123 359 275 279 285 272 185 276 313 315 261 234 263 257 295 136 227 239 191 322 299 321 26
259 27 29 314 347 335 307 308 290 289 167 274 286 242 271 305 307 298 312 327 261 102 235 232 270 283 287 287 226 233 239 256 279 282 276 282 294 305 247 243 230 179 268 287 303
338 349 351 294 277 302 271 290 316 312 279 288 258 288 304 292 286 302 317 317 315 311 281 322 286 284 288 288 271 287 272 267 275 273 273 281 288 119 242 191 171 217 263 268 333
3 326 278 300 285 260 317 337 326 337 285 285 324 312 301 331 343 319 312 299 290 291 282 268 290 291 283 287 318 274 295 307 280 255 272 261 269 25 23 58 348 9 354 322 357